Погода в Заречном

Россия / Липецкая область     52°13′46″N   38°04′18″E
темп.,
°C
ветер,
м/с
пор.,
м/с
влажн.,
%
обл.,
%
осадки,
мм/ч
давл.,
гПа
погр.,
м
19 января, ср
ср1900:00−8с91793100 1.7 1011572
03:00−9с81693100 2.3 1014543
06:00−11с6139290 0.3 1016413
09:00−16ссз49968 0.4 1019162
12:00−13ссз38955 0.0 1019192
15:00−13сз249587 0.0 102087
18:00−20зсз2210052 0.0 10219
21:00−21з2210054 0.0 102111
20 января, чт
чт2000:00−21юз2210027 0.0 102020
03:00−18юз349727 0.0 101953
06:00−16ююз369666 0.0 101882
09:00−14ю4109586 0.0 1017159
12:00−10ю5129460 0.1 1016288
15:00−9ю6149123 0.1 1014332
18:00−10ю715895 0.0 1013326
21:00−10ю71692100 0.0 1012362
21 января, пт
пт2100:00−8ю71594100 0.3 1011429
03:00−7ю71594100 0.4 1010430
06:00−6ююв61495100 1.6 1008520
09:00−5ююв71595100 3.3 1006584
12:00−2ю7139399 0.5 1005653
15:00−2ююз71196100 1.7 1004900
18:00−6юз511905 0.6 1006263
21:00−10ююз4119616 0.6 1008197
22 января, сб
сб2200:00−9ю5139599 0.0 1008277
03:00−9ю6129498 0.0 1009315
06:00−10ю51195100 0.0 1009229
09:00−10ю5129576 0.1 1011275
12:00−9ю399429 0.0 1013270
15:00−8ююв479582 0.0 1014196
18:00−12ююв369784 0.0 101669
21:00−11ю3597100 0.1 101870
23 января, вс
вс2300:00−14ю2299100 0.1 102013
03:00−17ююв22100100 0.1 102210
06:00−14юв229898 0.1 102417
09:00−16юв229980 0.2 102610
12:00−9юв129535 0.0 102861
15:00−9всв229688 0.0 102920
18:00−14всв3398100 0.0 103138
21:00−13св3697100 0.0 103181